Agadir Al Massira, Morocco

9:35 AM WET on May 26, 2017 (GMT +0000)
Agadir Al Massira

Weather History for GMAD - January, 2014

Change the Weather History Date:

Thursday, January 2, 2014

  Actual Average Record
Temperature  
Mean Temperature 52 °F -  
Max Temperature 68 °F - - ()
Min Temperature 37 °F - - ()
Degree Days  
Heating Degree Days 12    
Growing Degree Days 2 (Base 50)    
Moisture  
Dew Point 41 °F    
Average Humidity 70    
Maximum Humidity 93    
Minimum Humidity 31    
Precipitation  
Precipitation 0.00 in - - ()
Sea Level Pressure  
Sea Level Pressure 30.21 in    
Wind  
Wind Speed 2 mph ()    
Max Wind Speed 15 mph    
Max Gust Speed -    
Visibility 6.0 miles    
Events      
T = Trace of Precipitation, MM = Missing Value Source: Averaged Metar Reports

Daily Weather History Graph

Daily Weather History Graph

Search for Another Location

Airport or City:

Trip Planner

Search our weather history database for the weather conditions in past years. The results will help you decide how hot, cold, wet, or windy it might be!

Date:

Astronomy

Jan. 02, 2014 Rise Set
Actual Time 7:34 AM WET 5:48 PM WET
Civil Twilight 7:08 AM WET 6:15 PM WET
Nautical Twilight 6:38 AM WET 6:45 PM WET
Astronomical Twilight 6:09 AM WET 7:14 PM WET
Moon 8:11 AM WET (1/2) 7:21 PM WET (1/2)
Length of Visible Light 11h 07m
Length of Day
10h 14m
New Moon, 2% of the Moon is Illuminated
Jan 2
New Moon
Jan 8
First Quarter
Jan 16
Full
Jan 24
Last Quarter
Jan 30
New

Hourly Weather History & Observations

Time (WET) Temp. Dew Point Humidity Pressure Visibility Wind Dir Wind Speed Gust Speed Precip Events Conditions
12:00 AM 46 °F 43 °F 84% 30.26 in 6 mi Calm Calm - -   Scattered Clouds
12:00 AM 46.4 °F 42.8 °F 87% 30.24 in 6.2 mi Calm Calm - N/A   Partly Cloudy
1:00 AM 46.4 °F 42.8 °F 87% 30.21 in - Calm Calm - N/A   Clear
2:00 AM 42.8 °F 41.0 °F 93% 30.21 in - Calm Calm - N/A   Clear
3:00 AM 42 °F 39 °F 87% 30.22 in 6 mi Calm Calm - -  
3:00 AM 41.0 °F 39.2 °F 93% 30.21 in - Calm Calm - N/A   Clear
4:00 AM 41.0 °F 39.2 °F 93% 30.18 in - Calm Calm - N/A   Clear
5:00 AM 39.2 °F 37.4 °F 93% 30.18 in - Calm Calm - N/A   Clear
6:00 AM 39 °F 37 °F 88% 30.21 in 6 mi Calm Calm - -  
6:00 AM 39.2 °F 37.4 °F 93% 30.18 in - Calm Calm - N/A   Clear
7:00 AM 39.2 °F 35.6 °F 87% 30.18 in - Calm Calm - N/A   Clear
8:00 AM 37.4 °F 35.6 °F 93% 30.21 in - Calm Calm - N/A   Clear
9:00 AM 46 °F 42 °F 79% 30.25 in 6 mi Calm Calm - -  
9:00 AM 46.4 °F 42.8 °F 87% 30.21 in - Calm Calm - N/A   Clear
10:00 AM 53.6 °F 44.6 °F 72% 30.24 in - Calm Calm - N/A   Clear
11:00 AM 59.0 °F 42.8 °F 55% 30.24 in - Calm Calm - N/A   Clear
12:00 PM 64 °F 41 °F 31% 30.22 in 6 mi North 3.5 mph - -   Clear
12:00 PM 64.4 °F 41.0 °F 42% 30.21 in - North 3.5 mph - N/A   Clear
1:00 PM 66.2 °F 37.4 °F 35% 30.18 in - WNW 4.6 mph - N/A   Clear
2:00 PM 68.0 °F 39.2 °F 35% 30.18 in - West 9.2 mph - N/A   Clear
3:00 PM 65 °F 42 °F 31% 30.19 in 6 mi West 15.0 mph - -  
3:00 PM 66.2 °F 42.8 °F 43% 30.18 in - West 15.0 mph - N/A   Clear
4:00 PM 64.4 °F 42.8 °F 45% 30.18 in - West 12.7 mph - N/A   Clear
5:00 PM 64.4 °F 41.0 °F 42% 30.18 in - WSW 8.1 mph - N/A   Clear
6:00 PM 60 °F 46 °F 50% 30.21 in 6 mi West 6.9 mph - -   Clear
6:00 PM 60.8 °F 46.4 °F 59% 30.18 in - West 6.9 mph - N/A   Clear
7:00 PM 57.2 °F 48.2 °F 72% 30.21 in - Calm Calm - N/A   Clear
8:00 PM 51.8 °F 44.6 °F 76% 30.24 in - SSE 3.5 mph - N/A   Clear
9:00 PM 51 °F 45 °F 72% 30.26 in 6 mi SE 4.6 mph - -  
9:00 PM 51.8 °F 44.6 °F 76% 30.24 in - SE 4.6 mph - N/A   Clear
11:00 PM 46.4 °F 41.0 °F 81% 30.24 in - Calm Calm - N/A   Clear